Location: �perlecques
(50.8057°N, 2.1521°E)
Time: 09:56:10
(UTC+00:00)

Cosmos 1814 Rocket - Pass Details

Date: 09 April 2020
Orbit: 745 x 787 km, 74.1° (Epoch: 06 June)

Event Time Altitude Azimuth Distance (km) Brightness Sun altitude
Rises 21:37:41 0° 333° (NNW) 3,289 8.6 -24.3°
Reaches altitude 10° 21:40:06 10° 330° (NNW) 2,358 7.6 -24.6°
Maximum altitude 21:45:23 61° 252° (WSW) 895 4.3 -25.1°
Enters shadow 21:46:14 54° 211° (SSW) 959 4.3 -25.1°
